Weather History for Valparaiso, FL

Change the Weather History Date:

Thursday, December 27, 2012

  Actual Average Record
Temperature  
Mean Temperature 40 °F -  
Max Temperature 48 °F 61 °F 78 °F (1984)
Min Temperature 33 °F 37 °F 12 °F (1985)
Degree Days  
Heating Degree Days 24    
Moisture  
Dew Point 34 °F    
Average Humidity 77    
Maximum Humidity 93    
Minimum Humidity 62    
Precipitation  
Precipitation 0.00 in - - ()
Sea Level Pressure  
Sea Level Pressure 30.13 in    
Wind  
Wind Speed 6 mph (NW)    
Max Wind Speed 13 mph    
Max Gust Speed -    
Visibility 10 miles    
Events      
Averages and records for this station are not official NWS values.
T = Trace of Precipitation, MM = Missing Value Source: NWS Daily Summary

Daily Weather History Graph

Daily Weather History Graph

Search for Another Location

Airport:

Trip Planner

Search our weather history database for the weather conditions in past years. The results will help you decide how hot, cold, wet, or windy it might be!

Date:

Astronomy

Dec. 27, 2012 Rise Set
Actual Time 6:41 AM CST 4:53 PM CST
Civil Twilight 6:15 AM CST 5:19 PM CST
Nautical Twilight 5:45 AM CST 5:49 PM CST
Astronomical Twilight 5:15 AM CST 6:19 PM CST
Moon 4:33 PM CST (12/27) 5:54 AM CST (12/27)
Length of Visible Light 11h 04m
Length of Day
10h 11m
Full, 100% of the Moon is Illuminated
Dec 27
Full
Dec 28
Full
Jan 4
Last Quarter
Jan 11
New
Jan 18
First Quarter

Hourly Weather History & Observations

Time (CST) Temp. Windchill Dew Point Humidity Pressure Visibility Wind Dir Wind Speed Gust Speed Precip Events Conditions
12:55 AM 34.7 °F 28.8 °F 30.6 °F 85% 30.12 in 10.0 mi NW 6.9 mph - N/A   Scattered Clouds
1:55 AM 33.8 °F 28.6 °F 30.0 °F 86% 30.11 in 10.0 mi NW 5.8 mph - N/A   Mostly Cloudy
2:55 AM 35.1 °F 31.0 °F 30.7 °F 84% 30.11 in 10.0 mi North 4.6 mph - N/A   Mostly Cloudy
3:55 AM 36.9 °F 31.4 °F 31.3 °F 80% 30.11 in 10.0 mi NNW 6.9 mph - N/A   Mostly Cloudy
4:55 AM 37.0 °F 29.8 °F 31.1 °F 79% 30.11 in 10.0 mi North 10.4 mph - N/A   Mostly Cloudy
5:55 AM 36.7 °F 30.5 °F 30.9 °F 80% 30.14 in 10.0 mi NNW 8.1 mph - N/A   Overcast
6:55 AM 35.4 °F 26.8 °F 30.0 °F 81% 30.12 in 10.0 mi NNE 12.7 mph - N/A   Mostly Cloudy
7:55 AM 35.6 °F 29.9 °F 30.0 °F 80% 30.16 in 10.0 mi North 6.9 mph - N/A   Overcast
8:55 AM 37.4 °F 29.8 °F 30.6 °F 76% 30.19 in 10.0 mi NNW 11.5 mph - N/A   Mostly Cloudy
9:21 AM 37.4 °F 32.1 °F 30.2 °F 75% 30.17 in 10.0 mi NNW 6.9 mph - N/A   Mostly Cloudy
9:55 AM 41.4 °F 37.6 °F 31.3 °F 67% 30.20 in 10.0 mi NNE 5.8 mph - N/A   Scattered Clouds
10:55 AM 44.2 °F - 32.0 °F 62% 30.19 in 10.0 mi Calm Calm - N/A   Scattered Clouds
11:55 AM 46.4 °F 44.3 °F 34.3 °F 63% 30.16 in 10.0 mi South 4.6 mph - N/A   Scattered Clouds
12:34 PM 48.2 °F - 35.6 °F 62% 30.12 in 10.0 mi Calm Calm - N/A   Mostly Cloudy
12:55 PM 47.7 °F - 36.0 °F 64% 30.13 in 10.0 mi South 9.2 mph - N/A   Mostly Cloudy
1:55 PM 48.4 °F - 36.9 °F 64% 30.09 in 10.0 mi South 8.1 mph - N/A   Scattered Clouds
2:55 PM 48.9 °F - 38.3 °F 67% 30.11 in 10.0 mi SSW 8.1 mph - N/A   Scattered Clouds
3:55 PM 48.4 °F - 39.2 °F 71% 30.08 in 10.0 mi SSW 5.8 mph - N/A   Partly Cloudy
4:55 PM 46.9 °F - 39.2 °F 74% 30.08 in 10.0 mi Calm Calm - N/A   Partly Cloudy
5:55 PM 44.8 °F 43.3 °F 39.6 °F 82% 30.12 in 10.0 mi WSW 3.5 mph - N/A   Partly Cloudy
6:55 PM 43.3 °F - 37.4 °F 80% 30.10 in 10.0 mi Calm Calm - N/A   Partly Cloudy
7:55 PM 40.3 °F 37.1 °F 36.9 °F 88% 30.11 in 10.0 mi NW 4.6 mph - N/A   Partly Cloudy
8:55 PM 39.9 °F - 36.1 °F 86% 30.10 in 10.0 mi Calm Calm - N/A   Partly Cloudy
9:55 PM 36.7 °F - 34.7 °F 93% 30.11 in 10.0 mi Calm Calm - N/A   Partly Cloudy
10:55 PM 36.7 °F 34.1 °F 34.3 °F 91% 30.11 in 10.0 mi NNW 3.5 mph - N/A   Mostly Cloudy
11:55 PM 37.2 °F - 34.5 °F 90% 30.11 in 10.0 mi Calm Calm - N/A   Mostly Cloudy